map of YYQ home
Great Circle Mapper logo
YYQ - Airport
Location
City:  Churchill, Manitoba, Canada
ICAO / IATA:CYYQ / YYQ

Details
Type:Airport (Airfield)
Use:Public/Civil
Latitude:5844'21"N (58.739167)
Longitude:9403'54"W (-94.064999)
Datum:WGS 1984
Elevation:94 ft (29 m)
Runways:2
Longest:9200 × 160 ft (2804 × 49 m), paved

Time
Time Zone:UTC-6 (DST-5)
Local Time:

Weather
METAR:CYYQ 312300Z 02003KT 15SM FEW070 FEW230 M02/M04 A3009 RMK AC1CI1 SLP191
TAF:CYYQ 311738Z 3118/0118 25010KT P6SM BKN070
TEMPO 3118/3124 SCT070
BECMG 3120/3122 30008KT
FM010000 VRB03KT P6SM FEW080
BECMG 0104/0106 13008KT
BECMG 0109/0111 14015KT
FM011500 15015KT P6SM BKN120
RMK NXT FCST BY 010000Z

Related Locations
Nearby:
Farthest:YWKS: 11462 mi / 18447 km
Wilkins Runway (Casey), Upper Peterson Glacier, AQ

Find:

   beyond  
but within

Other Information
Maps:
NOTAMs:
Links:
Sources:

  
flag of Canada
flag of Manitoba
  

Airport Diagram

Airport diagram for YYQ

Airport diagram PDF

Sectional Chart

Flight Planning
at skyvector.com

Satellite Image

Google Maps Satellite View

 

Copyright © 2004-2014 Karl L. Swartz. All rights reserved.
The Great Circle Mapper name and logo are trademarks of the Great Circle Mapper.
All other trademarks mentioned herein belong to their respective owners.
Please see credits for attibutions and further copyright information.

  Follow gcmap on Facebook Follow gcmap on Twitter

hCard Microformat

Geo Microformat